[Date Prev][Date Next][Thread Prev][Thread Next] - [Date Index][Thread Index][Author Index]

2 Line ISS Keps 1-20



ISS 
1 25544U 98067A   05019.78387181  .00028402  00000-0  23484-3 0  6254
2 25544  51.6477 299.6548 0009368   9.7514  30.4193 15.69998243352351
----
Via the sarex mailing list at AMSAT.ORG courtesy of AMSAT-NA.
To unsubscribe, send "unsubscribe sarex" to Majordomo@amsat.org



AMSAT Top AMSAT Home